sat.trackr.live / text

‹ back to catalog

SDA_1680

NORAD 65990 · 2025-230S

PAYLOAD ACTIVE UNKNOWN

§ Identity

Operator
Country
US
Launch date
2025-10-15
Launch site
AFWTR
Launch vehicle
Mass (kg)
RCS (m²)

External: N2YO · Heavens-Above · Gunter

§ Orbital elements

Epoch: 2026-05-24T23:02:12.492384Z

Period
103.95 min
Inclination
81.3018°
Eccentricity
0.0002925
Mean motion
13.85227489 rev/d
Perigee alt
943.3 km
Apogee alt
947.5 km
Semi-major
7,323.5 km
B*
9.2551e-5
RAAN
233.1298°
Arg perigee
253.3748°
Mean anomaly
106.7088°
Rev number
3,060

§ Raw data

SDA_16801 65990U 25230S   26144.95986681  .00000117  00000+0  92551-4 0  99942 65990  81.3018 233.1298 0002925 253.3748 106.7088 13.85227489 30608

JSON: /api/v1/satellites/65990 · /tle

For live sub-satellite position, see the globe view (requires WebGL).

§ Visibility from observer

Set your observer location to see the next 7 days of passes ≥ 10°. The values pass through the URL so the page stays shareable.

No JS? Fill the form by hand. The geolocation button needs JavaScript.